• In Czech Republic
  • List of Countries
  • For 7 days
  • Water Temperature
  • Satellite Maps
  • Weather Map
  • Weather Widgets
  • user-avatar
    Login

    Hourly Weather Mazari Sharif

    Today, 21 May, Monday

    Time Temperature Precipitation Wind Pressure Humidity
    00:00 +16°C° 0 mm 1 mps 657 mmHg 37%
    01:00 +14°C° 0 mm 0 mps 656 mmHg 39%
    02:00 +15°C° 0 mm 1 mps 656 mmHg 40%
    03:00 +15°C° 0 mm 1 mps 656 mmHg 41%
    04:00 +14°C° 0 mm 1 mps 655 mmHg 45%
    05:00 +15°C° 0.2 mm 1 mps 656 mmHg 43%
    06:00 +16°C° 0.2 mm 1 mps 656 mmHg 41%
    07:00 +16°C° 0.2 mm 1 mps 656 mmHg 39%
    08:00 +18°C° 0.1 mm 1 mps 657 mmHg 37%
    09:00 +19°C° 0.1 mm 1 mps 657 mmHg 34%
    10:00 +20°C° 0.1 mm 1 mps 657 mmHg 32%
    11:00 +20°C° 0 mm 2 mps 657 mmHg 30%
    12:00 +20°C° 0 mm 2 mps 657 mmHg 28%
    13:00 +21°C° 0 mm 2 mps 657 mmHg 27%
    14:00 +21°C° 0 mm 2 mps 657 mmHg 26%
    15:00 +21°C° 0 mm 2 mps 657 mmHg 26%
    16:00 +21°C° 0 mm 2 mps 657 mmHg 26%
    17:00 +21°C° 0 mm 2 mps 657 mmHg 28%
    18:00 +21°C° 0 mm 1 mps 657 mmHg 30%
    19:00 +20°C° 0 mm 1 mps 657 mmHg 33%
    20:00 +20°C° 0 mm 1 mps 657 mmHg 33%
    21:00 +19°C° 0 mm 2 mps 657 mmHg 33%
    22:00 +18°C° 0 mm 2 mps 657 mmHg 33%
    23:00 +18°C° 0 mm 2 mps 657 mmHg 35%

    Tomorrow, 22 May, Tuesday

    Time Temperature Precipitation Wind Pressure Humidity
    00:00 +18°C° 0 mm 2 mps 657 mmHg 37%
    01:00 +17°C° 0 mm 2 mps 656 mmHg 39%
    02:00 +18°C° 0 mm 1 mps 656 mmHg 41%
    03:00 +16°C° 0 mm 1 mps 656 mmHg 44%
    04:00 +15°C° 0 mm 1 mps 656 mmHg 46%
    05:00 +16°C° 0.1 mm 1 mps 656 mmHg 42%
    06:00 +18°C° 0.1 mm 1 mps 657 mmHg 38%
    07:00 +17°C° 0.1 mm 0 mps 657 mmHg 33%
    08:00 +20°C° 0.1 mm 1 mps 658 mmHg 32%
    09:00 +21°C° 0.1 mm 1 mps 658 mmHg 30%
    10:00 +22°C° 0.1 mm 1 mps 658 mmHg 29%
    11:00 +23°C° 0 mm 2 mps 658 mmHg 28%
    12:00 +23°C° 0 mm 2 mps 658 mmHg 27%
    13:00 +24°C° 0 mm 3 mps 658 mmHg 26%
    14:00 +24°C° 0 mm 3 mps 658 mmHg 26%
    15:00 +24°C° 0 mm 3 mps 658 mmHg 26%
    16:00 +24°C° 0 mm 3 mps 657 mmHg 26%
    17:00 +23°C° 0.2 mm 2 mps 658 mmHg 28%
    18:00 +23°C° 0.2 mm 2 mps 658 mmHg 30%
    19:00 +22°C° 0.2 mm 1 mps 658 mmHg 32%
    20:00 +21°C° 0 mm 1 mps 658 mmHg 34%
    21:00 +20°C° 0 mm 2 mps 658 mmHg 35%
    22:00 +19°C° 0 mm 2 mps 658 mmHg 37%
    23:00 +19°C° 0 mm 2 mps 657 mmHg 37%

    Day after tomorrow, 23 May, Wednesday

    Time Temperature Precipitation Wind Pressure Humidity
    00:00 +18°C° 0 mm 2 mps 657 mmHg 38%
    01:00 +17°C° 0 mm 2 mps 657 mmHg 39%
    02:00 +17°C° 0.1 mm 2 mps 657 mmHg 40%
    03:00 +16°C° 0.1 mm 1 mps 656 mmHg 41%
    04:00 +16°C° 0.1 mm 1 mps 656 mmHg 42%
    05:00 +18°C° 0 mm 1 mps 657 mmHg 38%
    06:00 +19°C° 0 mm 1 mps 657 mmHg 34%
    07:00 +21°C° 0 mm 1 mps 658 mmHg 30%
    08:00 +21°C° 0 mm 1 mps 658 mmHg 28%
    09:00 +22°C° 0 mm 1 mps 659 mmHg 26%
    10:00 +23°C° 0 mm 2 mps 659 mmHg 24%
    11:00 +24°C° 0 mm 2 mps 659 mmHg 24%
    12:00 +25°C° 0 mm 3 mps 658 mmHg 23%
    13:00 +25°C° 0 mm 3 mps 658 mmHg 22%
    14:00 +26°C° 0 mm 3 mps 658 mmHg 22%
    15:00 +26°C° 0 mm 3 mps 658 mmHg 22%
    16:00 +26°C° 0 mm 4 mps 657 mmHg 23%
    17:00 +25°C° 0 mm 3 mps 657 mmHg 25%
    18:00 +24°C° 0 mm 3 mps 657 mmHg 28%
    19:00 +23°C° 0 mm 2 mps 657 mmHg 30%
    20:00 +21°C° 0 mm 2 mps 657 mmHg 32%
    21:00 +21°C° 0 mm 2 mps 657 mmHg 34%
    22:00 +21°C° 0 mm 1 mps 657 mmHg 35%
    23:00 +20°C° 0 mm 1 mps 657 mmHg 37%

    24 May, Thursday

    Time Temperature Precipitation Wind Pressure Humidity
    00:00 +20°C° 0 mm 1 mps 656 mmHg 38%
    01:00 +19°C° 0 mm 1 mps 656 mmHg 39%
    02:00 +19°C° 0 mm 1 mps 655 mmHg 41%
    03:00 +18°C° 0 mm 1 mps 655 mmHg 43%
    04:00 +18°C° 0 mm 1 mps 654 mmHg 44%
    05:00 +19°C° 0 mm 1 mps 655 mmHg 40%
    06:00 +20°C° 0 mm 1 mps 656 mmHg 36%
    07:00 +22°C° 0 mm 1 mps 656 mmHg 32%
    08:00 +23°C° 0 mm 2 mps 656 mmHg 30%
    09:00 +24°C° 0 mm 2 mps 656 mmHg 27%
    10:00 +25°C° 0 mm 2 mps 657 mmHg 25%
    11:00 +26°C° 0 mm 3 mps 656 mmHg 23%
    12:00 +26°C° 0 mm 3 mps 656 mmHg 22%
    13:00 +27°C° 0 mm 3 mps 656 mmHg 20%
    14:00 +27°C° 0 mm 3 mps 656 mmHg 20%
    15:00 +27°C° 0 mm 3 mps 655 mmHg 20%
    16:00 +27°C° 0 mm 3 mps 655 mmHg 20%
    17:00 +26°C° 0 mm 3 mps 655 mmHg 23%
    18:00 +25°C° 0 mm 2 mps 655 mmHg 25%
    19:00 +24°C° 0 mm 2 mps 654 mmHg 28%
    20:00 +24°C° 0 mm 2 mps 654 mmHg 30%
    21:00 +23°C° 0 mm 1 mps 654 mmHg 32%
    22:00 +22°C° 0 mm 1 mps 654 mmHg 34%
    23:00 +22°C° 0 mm 1 mps 654 mmHg 35%

    25 May, Friday

    Time Temperature Precipitation Wind Pressure Humidity
    00:00 +21°C° 0 mm 1 mps 653 mmHg 36%
    01:00 +21°C° 0 mm 1 mps 653 mmHg 37%
    02:00 +20°C° 0 mm 1 mps 653 mmHg 37%
    03:00 +20°C° 0 mm 1 mps 653 mmHg 38%
    04:00 +20°C° 0 mm 1 mps 652 mmHg 38%
    05:00 +21°C° 0 mm 1 mps 653 mmHg 35%
    06:00 +22°C° 0 mm 1 mps 654 mmHg 31%
    07:00 +24°C° 0 mm 2 mps 654 mmHg 28%
    08:00 +25°C° 0 mm 2 mps 654 mmHg 26%
    09:00 +26°C° 0 mm 2 mps 655 mmHg 24%
    10:00 +28°C° 0 mm 3 mps 655 mmHg 22%
    11:00 +28°C° 0 mm 3 mps 654 mmHg 21%
    12:00 +29°C° 0 mm 3 mps 654 mmHg 20%
    13:00 +30°C° 0 mm 4 mps 654 mmHg 19%
    14:00 +30°C° 0 mm 3 mps 654 mmHg 19%
    15:00 +30°C° 0 mm 3 mps 654 mmHg 19%
    16:00 +30°C° 0 mm 3 mps 654 mmHg 19%
    17:00 +29°C° 0 mm 2 mps 654 mmHg 23%
    18:00 +28°C° 0 mm 2 mps 654 mmHg 26%
    19:00 +27°C° 0 mm 1 mps 654 mmHg 29%
    20:00 +26°C° 0.2 mm 1 mps 654 mmHg 31%
    21:00 +25°C° 0.2 mm 1 mps 653 mmHg 33%
    22:00 +25°C° 0.2 mm 1 mps 653 mmHg 35%
    23:00 +24°C° 0 mm 1 mps 653 mmHg 36%

    26 May, Saturday

    Time Temperature Precipitation Wind Pressure Humidity
    00:00 +23°C° 0 mm 1 mps 653 mmHg 36%
    01:00 +23°C° 0 mm 1 mps 652 mmHg 37%
    02:00 +22°C° 0 mm 1 mps 652 mmHg 37%
    03:00 +22°C° 0 mm 1 mps 652 mmHg 38%
    04:00 +21°C° 0 mm 1 mps 652 mmHg 39%
    05:00 +23°C° 0 mm 1 mps 653 mmHg 35%
    06:00 +25°C° 0 mm 1 mps 654 mmHg 31%
    07:00 +26°C° 0 mm 1 mps 655 mmHg 27%
    08:00 +27°C° 0 mm 1 mps 655 mmHg 24%
    09:00 +28°C° 0 mm 1 mps 655 mmHg 21%
    10:00 +30°C° 0 mm 1 mps 655 mmHg 18%
    11:00 +30°C° 0 mm 2 mps 655 mmHg 17%
    12:00 +31°C° 0 mm 2 mps 655 mmHg 16%
    13:00 +33°C° 0 mm 3 mps 655 mmHg 15%
    14:00 +33°C° 0 mm 3 mps 655 mmHg 15%
    15:00 +33°C° 0 mm 3 mps 655 mmHg 16%
    16:00 +33°C° 0 mm 3 mps 655 mmHg 16%
    17:00 +31°C° 0 mm 2 mps 655 mmHg 18%
    18:00 +29°C° 0 mm 2 mps 655 mmHg 20%
    19:00 +28°C° 0 mm 2 mps 655 mmHg 23%
    20:00 +28°C° 0 mm 1 mps 655 mmHg 23%
    21:00 +27°C° 0 mm 1 mps 654 mmHg 24%
    22:00 +26°C° 0 mm 1 mps 654 mmHg 25%
    23:00 +26°C° 0 mm 1 mps 654 mmHg 25%
    Show more